Last 6 Hours

AM-Roundhouse Btm 6950'

15 Minute Data | America/Los_Angeles
as of 1/23/22 5:26 AM PST
Date & Time Temp (°F) RH (%) Dew Pt (°F) Wet Bulb (°F) Wind Dir (°) Wind Spd (mph) Wind Gust (mph) WindChill (°F) Barometric Press (inHg) New Snow (in) SnowDepth (in) Latest Rain (In) Daily Rain (In) Daily Min Temp (°F) Daily Max Temp (°F)
1/23/22 - 0515 26.6 76 20.2 24.2 SW | 222 0.3 1.5 26.6 30.27 0.0 70.3 0.00 0.00 26.5 31.1
1/23/22 - 0500 27.5 72 19.7 24.6 W | 264 0.5 3.1 27.5 30.27 0.0 70.1 0.00 0.00 27.1 31.1
1/23/22 - 0445 28.5 72 20.6 25.5 SW | 219 1.1 3.9 28.5 30.27 0.0 70.3 0.00 0.00 27.1 31.1
1/23/22 - 0430 28.3 75 21.3 25.6 SW | 229 1.1 4.0 28.3 30.27 0.0 70.4 0.00 0.00 27.1 31.1
1/23/22 - 0415 28.0 75 20.9 25.3 S | 189 0.5 2.3 28.0 30.27 0.0 70.3 0.00 0.00 27.7 31.1
1/23/22 - 0400 27.8 77 21.5 25.4 SSW | 204 0.4 2.2 27.8 30.27 0.2 70.3 0.00 0.00 27.7 31.1
1/23/22 - 0345 29.8 74 22.4 26.9 WSW | 246 0.8 3.1 29.8 30.27 0.0 70.3 0.00 0.00 29.3 31.1
1/23/22 - 0330 29.6 73 22.1 26.7 WSW | 252 1.6 3.8 29.6 30.26 0.0 70.1 0.00 0.00 29.3 31.1
1/23/22 - 0315 29.8 72 22.0 26.8 W | 266 0.9 3.6 29.8 30.27 0.0 70.2 0.00 0.00 29.3 31.1
1/23/22 - 0300 29.9 73 22.1 26.8 SSW | 212 2.3 5.5 29.9 30.26 0.0 70.3 0.00 0.00 29.3 31.1
1/23/22 - 0245 29.4 71 21.3 26.3 SW | 230 0.7 3.7 29.4 30.27 0.0 70.4 0.00 0.00 29.3 31.1
1/23/22 - 0230 30.5 68 21.3 26.9 SSW | 197 1.0 3.2 30.5 30.27 0.0 70.3 0.00 0.00 29.6 31.1
1/23/22 - 0215 30.5 68 21.1 26.8 SSW | 200 1.9 6.6 27.3 30.26 0.0 70.2 0.00 0.00 29.6 31.1
1/23/22 - 0200 30.3 69 21.2 26.7 S | 181 3.5 9.9 24.6 30.26 0.0 70.4 0.00 0.00 29.6 31.1
1/23/22 - 0145 30.4 67 20.9 26.7 S | 189 5.0 10.7 26.4 30.27 0.0 70.4 0.00 0.00 29.6 31.1
1/23/22 - 0130 30.3 68 21.0 26.6 SSW | 193 2.5 8.5 24.6 30.25 0.0 70.4 0.00 0.00 29.6 31.1
1/23/22 - 0115 30.8 65 20.3 26.7 S | 189 3.9 10.5 30.8 30.25 0.0 70.4 0.00 0.00 29.6 31.1
1/23/22 - 0100 30.5 69 21.6 27.0 SSW | 192 2.7 8.9 24.4 30.25 0.0 70.4 0.00 0.00 29.6 31.1
1/23/22 - 0045 31.1 66 20.9 27.1 S | 187 3.7 9.9 31.1 30.26 0.0 70.3 0.00 0.00 29.6 31.1
1/23/22 - 0030 29.6 67 20.1 26.0 WSW | 244 1.2 3.6 29.6 30.26 0.0 70.3 0.00 0.00 29.6 30.7
1/23/22 - 0015 30.3 66 20.4 26.4 SW | 215 0.9 5.0 30.3 30.27 0.0 70.5 0.00 0.00 29.6 30.3
1/23/22 - 0000 29.6 70 21.1 26.3 W | 270 1.9 8.6 29.6 30.27 0.0 70.3 0.00 0.00 24.2 37.1
1/22/22 - 2345 30.5 68 21.2 26.8 SW | 216 1.2 3.6 30.5 30.26 0.0 70.3 0.00 0.00 24.2 37.1
1/22/22 - 2330 30.6 68 21.3 27.0 W | 263 1.9 9.7 27.1 30.26 0.0 70.4 0.00 0.00 24.2 37.1
Max 31.1 77 22.4 27.1 - 5.0 10.7 31.1 30.27 0.2 70.5 0.00 0.00 29.6 37.1
Avg 29.6 70 21.1 26.3 - 1.7 5.6 28.4 30.26 0.0 70.3 0.00 - - -
Min 26.6 65 19.7 24.2 - 0.3 1.5 24.4 30.25 0.0 70.1 0.00 0.00 24.2 30.3
Total - - - - - - - - - - - 0.00 - - -